Weather History for Richmond (NSW), NW

Change the Weather History Date:

Tuesday, September 10, 2013

  Actual Average (YSSY) Record (YSSY)
Temperature  
Mean Temperature 74 °F -  
Max Temperature 89 °F 73 °F 91 °F (2013)
Min Temperature 60 °F 48 °F 44 °F (2008)
Cooling Degree Days 10    
Growing Degree Days 24 (Base 50)    
Moisture  
Dew Point 40 °F    
Average Humidity 31    
Maximum Humidity 72    
Minimum Humidity 15    
Precipitation  
Precipitation 0.00 in 0.07 in - ()
Sea Level Pressure  
Sea Level Pressure 29.67 in    
Wind  
Wind Speed 12 mph ()    
Max Wind Speed 30 mph    
Max Gust Speed 48 mph    
Visibility 6.2 miles    
Events      
Averages and records for this station are not official NWS values.
T = Trace of Precipitation, MM = Missing Value Source: Averaged Metar Reports

Daily Weather History Graph

Daily Weather History Graph

Search for Another Location

Airport:

Trip Planner

Search our weather history database for the weather conditions in past years. The results will help you decide how hot, cold, wet, or windy it might be!

Date:

Astronomy

Sep. 10, 2013 Rise Set
Actual Time 6:03 AM AEST 5:45 PM AEST
Civil Twilight 5:38 AM AEST 6:09 PM AEST
Nautical Twilight 5:09 AM AEST 6:38 PM AEST
Astronomical Twilight 4:40 AM AEST 7:07 PM AEST
Moon 8:37 AM AEST (9/10) 10:33 PM AEST (9/10)
Length of Visible Light 12h 31m
Length of Day
11h 41m
Waxing Crescent, 22% of the Moon is Illuminated
Sep 10
Waxing Crescent
Sep 13
First Quarter
Sep 19
Full
Sep 27
Last Quarter
Oct 5
New

Hourly Weather History & Observations

Time (AEST) Temp. Dew Point Humidity Pressure Visibility Wind Dir Wind Speed Gust Speed Precip Events Conditions
12:00 AM 62.6 °F 53.6 °F 72% 29.80 in 6.2 mi NE 5.8 mph - N/A   Unknown
1:00 AM 60.8 °F 51.8 °F 72% 29.77 in 6.2 mi East 1.2 mph - N/A   Unknown
2:00 AM 66.2 °F 50.0 °F 56% 29.74 in 6.2 mi North 6.9 mph - N/A   Unknown
2:30 AM 62.6 °F 51.8 °F 68% 29.74 in 6.2 mi ESE 4.6 mph - N/A   Unknown
3:00 AM 68.0 °F 48.2 °F 49% 29.71 in 6.2 mi NNE 9.2 mph - N/A   Unknown
3:30 AM 69.8 °F 46.4 °F 43% 29.71 in 6.2 mi North 11.5 mph - N/A   Unknown
4:00 AM 69.8 °F 46.4 °F 43% 29.71 in 6.2 mi North 12.7 mph - N/A   Unknown
4:30 AM 69.8 °F 44.6 °F 40% 29.71 in 6.2 mi North 9.2 mph - N/A   Unknown
5:00 AM 69.8 °F 44.6 °F 40% 29.71 in 6.2 mi NNE 10.4 mph - N/A   Unknown
5:30 AM 69.8 °F 44.6 °F 40% 29.71 in 6.2 mi North 12.7 mph - N/A   Unknown
6:00 AM 71.6 °F 42.8 °F 35% 29.71 in 6.2 mi North 10.4 mph - N/A   Unknown
6:30 AM 71.6 °F 41.0 °F 33% 29.71 in 6.2 mi North 11.5 mph - N/A   Unknown
7:00 AM 73.4 °F 41.0 °F 31% 29.71 in 6.2 mi North 12.7 mph - N/A   Unknown
7:30 AM 75.2 °F 39.2 °F 27% 29.71 in 6.2 mi North 11.5 mph - N/A   Unknown
8:00 AM 77.0 °F 41.0 °F 28% 29.71 in 6.2 mi NNW 11.5 mph - N/A   Unknown
8:30 AM 78.8 °F 39.2 °F 24% 29.71 in 6.2 mi North 13.8 mph - N/A   Unknown
9:00 AM 80.6 °F 37.4 °F 21% 29.71 in 6.2 mi North 17.3 mph - N/A   Unknown
9:20 AM 80.6 °F 37.4 °F 21% 29.71 in 6.2 mi North 17.3 mph 28.8 mph N/A   Unknown
9:30 AM 82.4 °F 41.0 °F 23% 29.68 in 6.2 mi North 17.3 mph - N/A   Unknown
10:00 AM 82.4 °F 37.4 °F 20% 29.68 in 6.2 mi North 16.1 mph - N/A   Unknown
10:30 AM 84.2 °F 37.4 °F 19% 29.65 in 6.2 mi North 20.7 mph - N/A   Unknown
11:00 AM 84.2 °F 37.4 °F 19% 29.65 in 6.2 mi North 17.3 mph - N/A   Unknown
11:30 AM 86.0 °F 37.4 °F 18% 29.62 in 6.2 mi NNW 20.7 mph - N/A   Unknown
12:00 PM 87.8 °F 37.4 °F 17% 29.59 in 6.2 mi NNW 19.6 mph - N/A   Unknown
12:04 PM 87.8 °F 39.2 °F 18% 29.59 in 6.2 mi NNW 19.6 mph 31.1 mph N/A   Unknown
12:26 PM 87.8 °F 35.6 °F 16% 29.59 in 6.2 mi NW 23.0 mph 34.5 mph N/A   Unknown
12:30 PM 87.8 °F 37.4 °F 17% 29.59 in 6.2 mi NW 23.0 mph 34.5 mph N/A   Unknown
1:00 PM 87.8 °F 35.6 °F 16% 29.56 in 6.2 mi NW 25.3 mph 36.8 mph N/A   Unknown
1:30 PM 89.6 °F 35.6 °F 15% 29.56 in 6.2 mi NW 19.6 mph 32.2 mph N/A   Unknown
1:59 PM 87.8 °F 33.8 °F 15% 29.53 in 6.2 mi WNW 28.8 mph 48.3 mph N/A   Unknown
2:00 PM 87.8 °F 33.8 °F 15% 29.53 in 6.2 mi WNW 29.9 mph 48.3 mph N/A   Unknown
2:30 PM 87.8 °F 33.8 °F 15% 29.56 in 6.2 mi WNW 27.6 mph 39.1 mph N/A   Unknown
3:00 PM 87.8 °F 33.8 °F 15% 29.56 in 6.2 mi WNW 27.6 mph 42.6 mph N/A   Scattered Clouds
3:33 PM 87.8 °F 33.8 °F 15% 29.56 in 6.2 mi WNW 17.3 mph 28.8 mph N/A   Scattered Clouds
4:01 PM 86.0 °F 35.6 °F 17% 29.56 in 6.2 mi NW 21.9 mph 33.4 mph N/A   Scattered Clouds
4:32 PM 84.2 °F 35.6 °F 18% 29.56 in 6.2 mi WNW 18.4 mph 32.2 mph N/A   Mostly Cloudy
5:00 PM 82.4 °F 37.4 °F 20% 29.59 in 6.2 mi West 19.6 mph 32.2 mph N/A   Scattered Clouds
5:31 PM 80.6 °F 37.4 °F 21% 29.59 in 6.2 mi WNW 21.9 mph 33.4 mph N/A   Unknown
6:00 PM 77.0 °F 41.0 °F 28% 29.62 in 6.2 mi WSW 16.1 mph 28.8 mph N/A   Scattered Clouds
6:30 PM 75.2 °F 46.4 °F 36% 29.65 in 6.2 mi WSW 13.8 mph - N/A   Scattered Clouds
7:00 PM 73.4 °F 44.6 °F 36% 29.68 in 6.2 mi WNW 12.7 mph - N/A   Scattered Clouds
7:34 PM 71.6 °F 41.0 °F 33% 29.68 in 6.2 mi West 17.3 mph 32.2 mph N/A   Unknown
8:00 PM 69.8 °F 41.0 °F 35% 29.71 in 6.2 mi West 16.1 mph - N/A   Unknown
8:30 PM 68.0 °F 41.0 °F 37% 29.74 in 6.2 mi SW 2.3 mph - N/A   Unknown
9:00 PM 66.2 °F 41.0 °F 40% 29.74 in 6.2 mi SW 6.9 mph - N/A   Unknown
9:30 PM 66.2 °F 39.2 °F 37% 29.74 in 6.2 mi West 9.2 mph 24.2 mph N/A   Unknown
10:00 PM 64.4 °F 41.0 °F 42% 29.74 in 6.2 mi West 9.2 mph - N/A   Unknown
10:30 PM 68.0 °F 39.2 °F 35% 29.74 in 6.2 mi West 15.0 mph - N/A   Unknown
11:00 PM 64.4 °F 41.0 °F 42% 29.77 in 6.2 mi West 12.7 mph - N/A   Unknown
11:30 PM 64.4 °F 39.2 °F 40% 29.77 in 6.2 mi West 13.8 mph - N/A   Unknown